Simultaneous Nadir Overpasses (SNOs) Predictions

Prediction of SNOs between NOAA-19 and NPP Satellite Orbit:

Table of predicted SNOs for the next 14.0 days since TLE Epoch: 3/21/2015
Index Date (NOAA-19) Time (NOAA-19) Lat,Lon (NOAA-19) SZA (NOAA-19 ) Date (NPP) Time (NPP) Lat,Lon (NPP) SZA (NPP ) Distance(km) Time Diff (sec)
1 03/27/2015 11:26:42 81.00, -43.07 81.99 03/27/2015 11:27:56 81.00, -42.98 81.94 1.55 74
2 03/27/2015 12:17:47 -81.00, 124.38 98.06 03/27/2015 12:18:41 -81.00, 124.35 98.09 0.53 54
3 03/27/2015 13:08:44 80.99, -68.26 81.92 03/27/2015 13:09:26 81.00, -68.43 81.92 2.93 42
4 03/27/2015 13:59:49 -80.99, 99.19 98.13 03/27/2015 14:00:10 -80.98, 99.27 98.16 1.57 21
5 03/27/2015 14:50:46 80.99, -93.45 81.84 03/27/2015 14:50:55 80.99, -93.50 81.85 0.84 9
6 03/27/2015
